TimeCDT,TemperatureF,Dew PointF,Humidity,Sea Level PressureIn,VisibilityMPH,Wind Direction,Wind SpeedMPH,Gust SpeedMPH,PrecipitationIn,Events,Conditions,WindDirDegrees,DateUTC
1:35 AM,68.5,51.3,54,29.98,10.0,SE,3.5,-,N/A,,Scattered Clouds,140,2012-10-03 06:35:00
1:55 AM,68.5,50.9,53,29.98,10.0,Calm,Calm,-,N/A,,Scattered Clouds,0,2012-10-03 06:55:00
2:15 AM,69.6,49.6,49,29.97,10.0,SE,4.6,-,N/A,,Scattered Clouds,140,2012-10-03 07:15:00
2:35 AM,68.9,50.0,51,29.97,10.0,SE,3.5,-,N/A,,Clear,130,2012-10-03 07:35:00
2:55 AM,68.0,50.9,54,29.97,10.0,SE,3.5,-,N/A,,Clear,130,2012-10-03 07:55:00
3:15 AM,67.6,51.6,56,29.96,10.0,SSE,4.6,-,N/A,,Clear,150,2012-10-03 08:15:00
3:35 AM,67.1,52.0,58,29.96,10.0,SE,3.5,-,N/A,,Clear,140,2012-10-03 08:35:00
3:55 AM,66.6,52.5,61,29.95,10.0,SE,4.6,-,N/A,,Clear,140,2012-10-03 08:55:00
4:15 AM,65.7,53.2,64,29.95,10.0,ESE,5.8,-,N/A,,Clear,110,2012-10-03 09:15:00
4:55 AM,64.9,54.1,68,29.95,10.0,SE,3.5,-,N/A,,Clear,130,2012-10-03 09:55:00
5:15 AM,64.9,55.2,71,29.95,10.0,SE,3.5,-,N/A,,Clear,130,2012-10-03 10:15:00
5:55 AM,64.4,55.9,74,29.95,10.0,SE,3.5,-,N/A,,Clear,130,2012-10-03 10:55:00
6:15 AM,64.4,56.1,74,29.95,10.0,ESE,4.6,-,N/A,,Clear,120,2012-10-03 11:15:00
6:35 AM,64.4,56.3,75,29.95,10.0,ESE,4.6,-,N/A,,Clear,120,2012-10-03 11:35:00
6:55 AM,63.7,56.8,78,29.95,10.0,East,4.6,-,N/A,,Clear,100,2012-10-03 11:55:00
7:35 AM,64.4,57.7,79,29.95,10.0,East,5.8,-,N/A,,Clear,90,2012-10-03 12:35:00
10:55 AM,84.0,56.8,39,29.97,10.0,SE,10.4,17.3,N/A,,Clear,140,2012-10-03 15:55:00
11:15 AM,85.5,55.6,36,29.96,10.0,SE,10.4,17.3,N/A,,Clear,130,2012-10-03 16:15:00
11:35 AM,86.2,56.1,36,29.96,10.0,SSE,9.2,18.4,N/A,,Clear,160,2012-10-03 16:35:00
12:15 PM,88.7,57.4,35,29.95,10.0,SSE,11.5,-,N/A,,Clear,150,2012-10-03 17:15:00
12:35 PM,89.6,58.1,34,29.94,10.0,SE,11.5,17.3,N/A,,Clear,140,2012-10-03 17:35:00
12:55 PM,91.2,58.1,33,29.93,10.0,South,12.7,17.3,N/A,,Clear,170,2012-10-03 17:55:00
1:15 PM,91.2,58.1,33,29.92,10.0,South,6.9,20.7,N/A,,Clear,180,2012-10-03 18:15:00
1:55 PM,93.0,57.6,30,29.90,10.0,SE,11.5,-,N/A,,Clear,130,2012-10-03 18:55:00
2:55 PM,96.4,56.5,26,29.87,10.0,SE,10.4,-,N/A,,Clear,140,2012-10-03 19:55:00
3:15 PM,96.8,57.0,26,29.86,10.0,SSE,6.9,-,N/A,,Clear,160,2012-10-03 20:15:00
3:35 PM,96.8,56.5,26,29.86,10.0,South,5.8,-,0.03,Thunderstorm,Thunderstorm,190,2012-10-03 20:35:00
3:55 PM,97.7,56.3,25,29.85,10.0,South,6.9,-,0.03,,Clear,190,2012-10-03 20:55:00
4:15 PM,97.9,55.4,24,29.85,10.0,South,6.9,-,N/A,,Clear,180,2012-10-03 21:15:00
4:35 PM,97.5,55.0,24,29.85,10.0,SSW,6.9,-,N/A,,Clear,210,2012-10-03 21:35:00
4:55 PM,97.9,55.8,24,29.85,10.0,South,8.1,18.4,N/A,,Clear,180,2012-10-03 21:55:00
5:15 PM,97.7,56.3,25,29.85,10.0,SSW,6.9,-,N/A,,Clear,200,2012-10-03 22:15:00
6:15 PM,96.8,55.8,25,29.85,10.0,SSE,5.8,-,N/A,,Clear,150,2012-10-03 23:15:00
7:15 PM,93.2,55.6,28,29.86,10.0,SE,5.8,-,N/A,,Clear,140,2012-10-04 00:15:00
7:35 PM,91.2,55.8,30,29.87,10.0,SE,4.6,-,N/A,,Clear,130,2012-10-04 00:35:00
9:35 PM,85.6,65.7,51,29.92,10.0,SE,12.7,18.4,N/A,,Clear,130,2012-10-04 02:35:00
10:55 PM,82.2,66.6,59,29.94,10.0,SE,10.4,18.4,N/A,,Clear,130,2012-10-04 03:55:00
11:15 PM,81.7,66.6,60,29.95,10.0,SE,11.5,16.1,N/A,,Clear,140,2012-10-04 04:15:00